Location: Rockford
(42.2710°N, 89.0940°W)
Time: 00:07:17
(UTC-05:00)

SPOT 5 - Visible Passes

Search period start: 25 June 2016 00:00
Search period end: 05 July 2016 00:00
Orbit: 624 x 815 km, 98.5° (Epoch: 24 June)

Date Brightness Start Highest point End Pass type
(mag) Time Alt. Az. Time Alt. Az. Time Alt. Az.
25 Jun 2.9 21:46:07 10° S 21:50:36 76° WSW 21:55:23 10° NNW visible
26 Jun 4.7 22:35:15 10° SSW 22:38:57 24° W 22:42:49 10° NW visible
27 Jun 2.9 21:44:11 10° S 21:48:43 79° WSW 21:53:33 10° NNW visible
28 Jun 4.6 22:33:14 10° SSW 22:37:02 26° W 22:41:03 10° NW visible
29 Jun 2.9 21:42:14 10° SSE 21:46:50 83° WSW 21:51:44 10° NNW visible
30 Jun 4.5 22:31:12 10° SSW 22:35:08 27° W 22:39:17 10° NW visible
01 Jul 2.9 21:40:19 10° SSE 21:44:57 87° WSW 21:49:54 10° NNW visible
02 Jul 4.5 22:29:11 10° SSW 22:33:14 29° W 22:37:31 10° NW visible
03 Jul 2.9 21:38:23 10° SSE 21:43:04 89° ENE 21:48:05 10° NNW visible
04 Jul 4.4 22:27:11 10° SSW 22:31:21 31° W 22:35:45 10° NNW visible
